Home > Weather > Taipei > Past weeks

Flag for Taiwan Past Weather in Taipei, Taiwan — Yesterday and Last 2 Weeks

Now
84 °F

Passing clouds.


Feels Like: 91 °F
Forecast: 82 / 97 °F
Wind: 6 mph from Northwest

Location: Sungshan / Taipei

Current Time: Jun 1, 2016 at 4:05:59 AM

Latest Report: Jun 1, 2016 at 3:00 AM


Visibility: N/A

Pressure: 29.68 "Hg

Humidity: 70%

Dew Point: 73 °F

Location of TaipeiLocation

Past Weather in Taipei — Graph

°F

Taipei Temperature Yesterday

Maximum temperature yesterday: 95 °F (at 1:00 PM)
Minimum temperature yesterday: 82 °F (at 3:02 AM)
Average temperature yesterday: 89 °F

High & Low Weather Summary for the Past Weeks

 TemperatureHumidityPressure
High97 °F (May 29, 12:00 PM)89% (May 21, 11:00 PM)29.98 "Hg (May 21, 11:00 PM)
Low64 °F (May 17, 3:00 AM)44% (May 28, 12:30 PM)29.65 "Hg (May 29, 3:30 PM)
Average81 °F72%29.81 "Hg
* Reported May 17 3:00 AM — Jun 1 3:00 AM, Taipei, Weather by CustomWeather, © 2016

Note: Actual official high and low records may vary slightly from our data, if they occured in-between our weather recording intervals... More about our weather records

Advertising

Taipei Weather History for the Previous 24 Hours

Scroll right to see more
 ConditionsComfort  
Time TempWeatherWind HumidityBarometerVisibility
3:00 AM
Wed, Jun 1
84 °FPassing clouds.6 mph70%29.68 "HgN/A
2:00 AM84 °FPassing clouds.2 mph74%29.71 "HgN/A
1:00 AM84 °FPassing clouds.2 mph74%29.71 "HgN/A
12:00 AM84 °FPassing clouds.3 mph74%29.74 "HgN/A
11:30 PM
Tue, May 31
82 °FPassing clouds.6 mph79%29.74 "HgN/A
11:00 PM82 °FPassing clouds.5 mph79%29.77 "HgN/A
10:30 PM84 °FPassing clouds.5 mph74%29.77 "HgN/A
10:00 PM84 °FPassing clouds.7 mph74%29.77 "HgN/A
9:30 PM82 °FPassing clouds.6 mph79%29.77 "HgN/A
9:00 PM84 °FPassing clouds.7 mph74%29.74 "HgN/A
8:30 PM84 °FPassing clouds.8 mph74%29.74 "HgN/A
8:00 PM86 °FPassing clouds.10 mph66%29.74 "HgN/A
7:30 PM86 °FPassing clouds.9 mph66%29.74 "HgN/A
7:00 PM90 °FPassing clouds.5 mph55%29.74 "HgN/A
6:30 PM91 °FPassing clouds.6 mph52%29.74 "HgN/A
6:00 PM91 °FPassing clouds.7 mph52%29.71 "HgN/A
5:52 PM91 °FPassing clouds.7 mph52%29.71 "HgN/A
5:30 PM93 °FPassing clouds.9 mph49%29.71 "HgN/A
5:00 PM93 °FPassing clouds.9 mph49%29.71 "HgN/A
4:30 PM95 °FPassing clouds.9 mph47%29.71 "HgN/A
4:00 PM95 °FPassing clouds.10 mph47%29.71 "HgN/A
3:30 PM95 °FPassing clouds.9 mph50%29.71 "HgN/A
3:00 PM95 °FScattered clouds.12 mph50%29.71 "HgN/A
2:30 PM95 °FScattered clouds.10 mph50%29.74 "HgN/A
2:00 PM95 °FBroken clouds.14 mph50%29.74 "HgN/A
1:30 PM93 °FPartly sunny.12 mph53%29.74 "HgN/A
1:00 PM95 °FPartly sunny.12 mph47%29.74 "HgN/A
12:30 PM93 °FPartly sunny.12 mph56%29.77 "HgN/A
12:00 PM91 °FPartly sunny.10 mph59%29.77 "HgN/A
11:30 AM93 °FPartly sunny.8 mph53%29.77 "HgN/A
11:00 AM91 °FPartly sunny.7 mph59%29.80 "HgN/A
10:30 AM93 °FScattered clouds.12 mph49%29.80 "HgN/A
10:00 AM91 °FScattered clouds.10 mph52%29.80 "HgN/A
9:30 AM91 °FScattered clouds.10 mph52%29.80 "HgN/A
9:00 AM90 °FScattered clouds.3 mph55%29.83 "HgN/A
8:30 AM90 °FScattered clouds.2 mph59%29.83 "HgN/A
8:00 AM88 °FScattered clouds.5 mph62%29.83 "HgN/A
7:30 AM86 °FScattered clouds.6 mph66%29.83 "HgN/A
7:00 AM86 °FPartly sunny.2 mph66%29.83 "HgN/A
6:30 AM82 °FBroken clouds.3 mph74%29.83 "HgN/A
6:00 AM82 °FPartly sunny.6 mph74%29.80 "HgN/A
5:00 AM84 °FPassing clouds.8 mph70%29.80 "HgN/A
4:00 AM84 °FPassing clouds.9 mph70%29.77 "HgN/A
Weather by CustomWeather, © 2016

See weather overviewHow to use our weather pages